Weather in Maloyaz

Russia / Republic of Bashkortostan     55°10′47″N   58°09′21″E
temp.,
°C
wind,
m/s
gust,
m/s
humid.,
%
clouds,
%
prec.,
mm/h
press.,
hPa
HPBL,
m
28 february, sun
sun2823:00−16ese229298 0.6 100723
02:00−15e2290100 0.0 100637
05:00−14e1292100 0.1 100536
08:00−14e1296100 0.5 100498
11:00−11ene2291100 0.7 1004219
14:00−7ene2391100 0.3 1004319
17:00−7ne3595100 0.6 1004265
20:00−10ne2297100 0.3 100745
1 march, mon
mon123:00−11nne229798 0.7 100940
02:00−14n129793 0.3 101127
05:00−14n129795 0.6 101245
08:00−15nnw1297100 0.5 101434
11:00−12nnw119296 0.8 1015207
14:00−10nnw2288100 0.3 1015383
17:00−9wnw2492100 0.5 1016412
20:00−13wsw3696100 0.3 1017162
2 march, tue
tue223:00−16sw369592 0.4 1017106
02:00−18wsw339689 0.0 101764
05:00−19sw249795 0.1 1016122
08:00−22ssw339784 0.0 101544
11:00−15sw588950 0.0 1013416
14:00−10sw598386 0.0 1010598
17:00−8ssw5118593 0.0 1008661
20:00−9ssw41189100 0.0 1006729
3 march, wed
wed323:00−11sw51388100 0.0 1006668
02:00−11ssw41286100 0.0 1004521
05:00−11s41286100 0.0 1002356
08:00−11s31186100 0.0 1000303
11:00−5ssw61184100 0.0 998685
14:00−1sw5884100 0.0 997967
17:00−1wsw5887100 0.1 997781
20:00−5sw3795100 0.1 997190
4 march, thu
thu423:00−7wnw4994100 0.6 1000392
02:00−10w3795100 0.2 1001165
05:00−11wsw479597 0.2 1003157
08:00−12w379498 0.1 1004189
11:00−9wsw479196 0.1 1005432
14:00−7w6884100 0.1 10061029
17:00−8w6985100 0.2 10071004
20:00−11sw5129191 0.0 1008380